When you browse on this site, cookies collect data to enhance your experience and personalize the content and advertising you see.
Visit our Privacy Policy to learn more. By continuing to use the site, you agree to this use of cookies and data.
  • în România
  • Lista ţărilor
  • Pe 7 zile
  • Temperatura apei
  • Hartă satelitară
  • Meteo pe hartă
  • Widget-uri
  • user-avatar
    Intrare

    Meteo pe oră la Aromatne

    Astăzi, 19 Februarie, Marţi

    Timp Temperatura Precipitaţii Vânt Presiune Umiditate
    00:00 +2°C° 0 mm 2 m/s 752 mmHg 62%
    01:00 +2°C° 0 mm 2 m/s 753 mmHg 63%
    02:00 +1°C° 0 mm 2 m/s 753 mmHg 65%
    03:00 +1°C° 0 mm 2 m/s 753 mmHg 66%
    04:00 +1°C° 0 mm 2 m/s 753 mmHg 68%
    05:00 +1°C° 0 mm 2 m/s 753 mmHg 69%
    06:00 +1°C° 0 mm 2 m/s 754 mmHg 67%
    07:00 +3°C° 0 mm 1 m/s 754 mmHg 65%
    08:00 +3°C° 0 mm 1 m/s 754 mmHg 64%
    09:00 +5°C° 0 mm 1 m/s 755 mmHg 58%
    10:00 +6°C° 0 mm 1 m/s 755 mmHg 53%
    11:00 +7°C° 0 mm 1 m/s 755 mmHg 47%
    12:00 +7°C° 0 mm 1 m/s 755 mmHg 47%
    13:00 +8°C° 0 mm 1 m/s 755 mmHg 47%
    14:00 +8°C° 0 mm 1 m/s 754 mmHg 48%
    15:00 +7°C° 0 mm 1 m/s 754 mmHg 53%
    16:00 +6°C° 0 mm 1 m/s 754 mmHg 59%
    17:00 +6°C° 0 mm 1 m/s 754 mmHg 64%
    18:00 +5°C° 0 mm 1 m/s 754 mmHg 68%
    19:00 +4°C° 0 mm 1 m/s 754 mmHg 73%
    20:00 +3°C° 0 mm 2 m/s 754 mmHg 77%
    21:00 +2°C° 0 mm 2 m/s 753 mmHg 77%
    22:00 +2°C° 0 mm 2 m/s 753 mmHg 77%
    23:00 +2°C° 0 mm 2 m/s 753 mmHg 77%

    Mâine, 20 Februarie, Miercuri

    Timp Temperatura Precipitaţii Vânt Presiune Umiditate
    00:00 +2°C° 0 mm 2 m/s 753 mmHg 76%
    01:00 +2°C° 0 mm 2 m/s 752 mmHg 75%
    02:00 +2°C° 0 mm 2 m/s 752 mmHg 74%
    03:00 +1°C° 0 mm 2 m/s 752 mmHg 72%
    04:00 +1°C° 0 mm 2 m/s 751 mmHg 71%
    05:00 +1°C° 0 mm 2 m/s 751 mmHg 70%
    06:00 +2°C° 0 mm 2 m/s 751 mmHg 68%
    07:00 +3°C° 0 mm 2 m/s 751 mmHg 65%
    08:00 +3°C° 0 mm 2 m/s 751 mmHg 63%
    09:00 +5°C° 0 mm 2 m/s 750 mmHg 58%
    10:00 +5°C° 0 mm 3 m/s 750 mmHg 52%
    11:00 +8°C° 0 mm 3 m/s 750 mmHg 47%
    12:00 +8°C° 0 mm 3 m/s 750 mmHg 47%
    13:00 +8°C° 0 mm 3 m/s 750 mmHg 47%
    14:00 +8°C° 0 mm 4 m/s 749 mmHg 47%
    15:00 +8°C° 0 mm 3 m/s 749 mmHg 53%
    16:00 +7°C° 0 mm 3 m/s 749 mmHg 60%
    17:00 +5°C° 0 mm 3 m/s 748 mmHg 67%
    18:00 +5°C° 0 mm 3 m/s 748 mmHg 71%
    19:00 +4°C° 0 mm 3 m/s 748 mmHg 75%
    20:00 +3°C° 0 mm 3 m/s 748 mmHg 79%
    21:00 +3°C° 0 mm 3 m/s 748 mmHg 81%
    22:00 +3°C° 0 mm 3 m/s 748 mmHg 84%
    23:00 +3°C° 0 mm 3 m/s 748 mmHg 86%

    Poimâine, 21 Februarie, Joi

    Timp Temperatura Precipitaţii Vânt Presiune Umiditate
    00:00 +4°C° 0 mm 3 m/s 748 mmHg 88%
    01:00 +5°C° 0 mm 2 m/s 748 mmHg 90%
    02:00 +6°C° 0 mm 2 m/s 748 mmHg 92%
    03:00 +5°C° 0 mm 2 m/s 748 mmHg 93%
    04:00 +5°C° 0 mm 2 m/s 748 mmHg 94%
    05:00 +5°C° 0 mm 2 m/s 748 mmHg 94%
    06:00 +5°C° 0 mm 2 m/s 748 mmHg 92%
    07:00 +5°C° 0 mm 2 m/s 749 mmHg 90%
    08:00 +5°C° 0 mm 2 m/s 749 mmHg 87%
    09:00 +5°C° 0 mm 3 m/s 749 mmHg 77%
    10:00 +6°C° 0 mm 4 m/s 750 mmHg 67%
    11:00 +5°C° 0 mm 6 m/s 750 mmHg 56%
    12:00 +5°C° 0 mm 6 m/s 750 mmHg 57%
    13:00 +5°C° 0 mm 7 m/s 750 mmHg 58%
    14:00 +5°C° 0 mm 7 m/s 750 mmHg 59%
    15:00 +5°C° 0 mm 7 m/s 750 mmHg 63%
    16:00 +4°C° 0 mm 7 m/s 750 mmHg 67%
    17:00 +3°C° 0 mm 7 m/s 750 mmHg 71%
    18:00 +3°C° 0.1 mm 6 m/s 750 mmHg 71%
    19:00 +3°C° 0.1 mm 6 m/s 750 mmHg 71%
    20:00 +3°C° 0.1 mm 5 m/s 750 mmHg 71%
    21:00 +3°C° 0 mm 5 m/s 750 mmHg 71%
    22:00 +4°C° 0 mm 4 m/s 750 mmHg 72%
    23:00 +4°C° 0 mm 3 m/s 751 mmHg 72%

    22 Februarie, Vineri

    Timp Temperatura Precipitaţii Vânt Presiune Umiditate
    00:00 +4°C° 0 mm 3 m/s 750 mmHg 74%
    01:00 +4°C° 0 mm 3 m/s 750 mmHg 75%
    02:00 +5°C° 0 mm 2 m/s 750 mmHg 76%
    03:00 +5°C° 0.1 mm 2 m/s 749 mmHg 77%
    04:00 +5°C° 0.1 mm 2 m/s 749 mmHg 78%
    05:00 +5°C° 0.1 mm 2 m/s 749 mmHg 80%
    06:00 +5°C° 0.2 mm 2 m/s 749 mmHg 80%
    07:00 +5°C° 0.2 mm 2 m/s 748 mmHg 80%
    08:00 +6°C° 0.2 mm 2 m/s 748 mmHg 81%
    09:00 +6°C° 0.2 mm 2 m/s 748 mmHg 75%
    10:00 +7°C° 0.2 mm 3 m/s 748 mmHg 70%
    11:00 +8°C° 0.2 mm 3 m/s 747 mmHg 64%
    12:00 +8°C° 0.5 mm 3 m/s 747 mmHg 69%
    13:00 +7°C° 0.5 mm 3 m/s 746 mmHg 74%
    14:00 +6°C° 0.5 mm 4 m/s 746 mmHg 79%
    15:00 +7°C° 1.1 mm 3 m/s 746 mmHg 82%
    16:00 +5°C° 1.1 mm 3 m/s 745 mmHg 85%
    17:00 +6°C° 1.1 mm 2 m/s 745 mmHg 89%
    18:00 +3°C° 1.4 mm 4 m/s 745 mmHg 90%
    19:00 +1°C° 1.4 mm 5 m/s 746 mmHg 90%
    20:00 -1°C° 1.4 mm 6 m/s 746 mmHg 91%
    21:00 -2°C° 0.8 mm 7 m/s 746 mmHg 90%
    22:00 -4°C° 0.8 mm 8 m/s 746 mmHg 90%
    23:00 -6°C° 0.8 mm 8 m/s 746 mmHg 89%

    23 Februarie, Sâmbătă

    Timp Temperatura Precipitaţii Vânt Presiune Umiditate
    00:00 -6°C° 0.7 mm 9 m/s 747 mmHg 89%
    01:00 -8°C° 0.7 mm 9 m/s 747 mmHg 89%
    02:00 -9°C° 0.7 mm 9 m/s 747 mmHg 89%
    03:00 -10°C° 0.3 mm 9 m/s 748 mmHg 89%
    04:00 -10°C° 0.3 mm 9 m/s 748 mmHg 88%
    05:00 -11°C° 0.3 mm 9 m/s 748 mmHg 88%
    06:00 -11°C° 0.1 mm 8 m/s 749 mmHg 86%
    07:00 -12°C° 0.1 mm 8 m/s 750 mmHg 84%
    08:00 -12°C° 0.1 mm 8 m/s 750 mmHg 81%
    09:00 -11°C° 0 mm 8 m/s 751 mmHg 78%
    10:00 -11°C° 0 mm 8 m/s 751 mmHg 75%
    11:00 -10°C° 0 mm 8 m/s 752 mmHg 73%
    12:00 -10°C° 0 mm 8 m/s 752 mmHg 71%
    13:00 -9°C° 0 mm 7 m/s 752 mmHg 70%
    14:00 -8°C° 0 mm 7 m/s 752 mmHg 69%
    15:00 -9°C° 0 mm 6 m/s 752 mmHg 70%
    16:00 -9°C° 0 mm 6 m/s 753 mmHg 71%
    17:00 -10°C° 0 mm 6 m/s 753 mmHg 73%
    18:00 -10°C° 0 mm 5 m/s 753 mmHg 73%
    19:00 -11°C° 0 mm 5 m/s 753 mmHg 73%
    20:00 -11°C° 0 mm 5 m/s 754 mmHg 74%
    21:00 -11°C° 0 mm 5 m/s 754 mmHg 74%
    22:00 -11°C° 0 mm 5 m/s 754 mmHg 74%
    23:00 -11°C° 0 mm 5 m/s 754 mmHg 74%

    24 Februarie, Duminică

    Timp Temperatura Precipitaţii Vânt Presiune Umiditate
    00:00 -12°C° 0 mm 5 m/s 753 mmHg 75%
    01:00 -12°C° 0 mm 5 m/s 753 mmHg 76%
    02:00 -12°C° 0 mm 5 m/s 753 mmHg 78%
    03:00 -12°C° 0 mm 5 m/s 753 mmHg 79%
    04:00 -12°C° 0 mm 5 m/s 753 mmHg 80%
    05:00 -12°C° 0 mm 5 m/s 753 mmHg 81%
    06:00 -12°C° 0 mm 5 m/s 753 mmHg 81%
    07:00 -12°C° 0 mm 5 m/s 753 mmHg 81%
    08:00 -12°C° 0 mm 5 m/s 753 mmHg 80%
    09:00 -11°C° 0 mm 5 m/s 753 mmHg 78%
    10:00 -10°C° 0 mm 5 m/s 753 mmHg 76%
    11:00 -8°C° 0 mm 5 m/s 754 mmHg 74%
    12:00 -8°C° 0 mm 5 m/s 753 mmHg 73%
    13:00 -7°C° 0 mm 5 m/s 753 mmHg 73%
    14:00 -7°C° 0 mm 5 m/s 753 mmHg 72%
    15:00 -7°C° 0 mm 5 m/s 753 mmHg 75%
    16:00 -8°C° 0 mm 5 m/s 753 mmHg 77%
    17:00 -8°C° 0 mm 5 m/s 753 mmHg 80%
    18:00 -10°C° 0 mm 5 m/s 753 mmHg 80%
    19:00 -10°C° 0 mm 5 m/s 753 mmHg 81%
    20:00 -10°C° 0 mm 5 m/s 753 mmHg 81%
    21:00 -10°C° 0 mm 5 m/s 753 mmHg 82%
    22:00 -8°C° 0 mm 5 m/s 753 mmHg 83%
    23:00 -8°C° 0 mm 4 m/s 752 mmHg 84%
    Arată mai mult